Weather History for Chadron, NE

Change the Weather History Date:

Sunday, August 4, 2013

  Actual Average Record
Temperature  
Mean Temperature 79 °F 74 °F  
Max Temperature 95 °F 91 °F 104 °F (1947)
Min Temperature 62 °F 58 °F 42 °F (1974)
Degree Days  
Heating Degree Days 0 0  
Month to date heating degree days 0 0  
Since 1 June heating degree days 58 91  
Since 1 July heating degree days 0 10  
Cooling Degree Days 14 10  
Month to date cooling degree days 36 40  
Year to date cooling degree days 494 444  
Since 1 June cooling degree days 466 424  
Growing Degree Days 28 (Base 50)    
Moisture  
Dew Point 59 °F    
Average Humidity 59    
Maximum Humidity 93    
Minimum Humidity 24    
Precipitation  
Precipitation 0.00 in 0.06 in 1.12 in (1966)
Month to date precipitation 0.07 0.24  
Year to date precipitation 10.99 12.53  
Sea Level Pressure  
Sea Level Pressure 29.96 in    
Wind  
Wind Speed 8 mph (SSW)    
Max Wind Speed 18 mph    
Max Gust Speed 23 mph    
Visibility 10 miles    
Events      
T = Trace of Precipitation, MM = Missing Value Source: NWS Daily Summary

Daily Weather History Graph

Daily Weather History Graph

Search for Another Location

Airport:

Trip Planner

Search our weather history database for the weather conditions in past years. The results will help you decide how hot, cold, wet, or windy it might be!

Date:

Astronomy

Aug. 04, 2013 Rise Set
Actual Time 5:47 AM MDT 8:09 PM MDT
Civil Twilight 5:15 AM MDT 8:40 PM MDT
Nautical Twilight 4:35 AM MDT 9:19 PM MDT
Astronomical Twilight 3:51 AM MDT 10:03 PM MDT
Moon 3:49 AM MDT (8/4) 6:33 PM MDT (8/4)
Length of Visible Light 15h 25m
Length of Day
14h 21m
Waning Crescent, 4% of the Moon is Illuminated
Aug 4
Waning Crescent
Aug 6
New
Aug 14
First Quarter
Aug 20
Full
Aug 28
Last Quarter

Hourly Weather History & Observations

Time (MDT) Temp. Heat Index Dew Point Humidity Pressure Visibility Wind Dir Wind Speed Gust Speed Precip Events Conditions
12:53 AM 68.0 °F - 62.1 °F 81% 30.02 in 10.0 mi South 10.4 mph - N/A   Clear
1:53 AM 66.9 °F - 61.0 °F 81% 29.96 in 10.0 mi South 13.8 mph - N/A   Clear
2:53 AM 64.9 °F - 61.0 °F 87% 29.96 in 10.0 mi South 8.1 mph - N/A   Clear
3:53 AM 62.1 °F - 60.1 °F 93% 29.99 in 9.0 mi East 10.4 mph - N/A   Clear
4:53 AM 62.1 °F - 60.1 °F 93% 29.99 in 8.0 mi SSE 6.9 mph - N/A   Partly Cloudy
5:53 AM 63.0 °F - 60.1 °F 90% 29.99 in 10.0 mi South 6.9 mph - N/A   Clear
6:46 AM 64.4 °F - 60.8 °F 88% 30.08 in 10.0 mi SSW 3.5 mph - N/A   Mostly Cloudy
6:53 AM 66.0 °F - 61.0 °F 84% 30.03 in 10.0 mi SSW 4.6 mph - N/A   Mostly Cloudy
7:53 AM 70.0 °F - 62.1 °F 76% 30.01 in 10.0 mi SSW 13.8 mph - N/A   Mostly Cloudy
8:12 AM 71.6 °F - 60.8 °F 69% 30.08 in 10.0 mi SSW 15.0 mph - N/A   Scattered Clouds
8:24 AM 71.6 °F - 60.8 °F 69% 30.07 in 10.0 mi SSW 16.1 mph 23.0 mph N/A   Mostly Cloudy
8:53 AM 73.0 °F - 61.0 °F 66% 30.00 in 10.0 mi South 16.1 mph - N/A   Mostly Cloudy
9:20 AM 75.2 °F - 60.8 °F 61% 30.06 in 10.0 mi SSW 16.1 mph 21.9 mph N/A   Scattered Clouds
9:53 AM 77.0 °F - 61.0 °F 58% 29.99 in 10.0 mi SSW 13.8 mph 21.9 mph N/A   Scattered Clouds
10:53 AM 81.0 °F 81.3 °F 59.0 °F 47% 29.97 in 10.0 mi SW 12.7 mph 19.6 mph N/A   Clear
11:53 AM 84.0 °F 83.5 °F 57.9 °F 41% 29.94 in 10.0 mi West 5.8 mph - N/A   Clear
12:53 PM 86.0 °F 84.9 °F 57.0 °F 37% 29.92 in 10.0 mi WSW 9.2 mph - N/A   Clear
1:53 PM 88.0 °F 86.7 °F 57.0 °F 35% 29.90 in 10.0 mi SW 8.1 mph - N/A   Clear
2:53 PM 90.0 °F 88.6 °F 57.0 °F 33% 29.89 in 10.0 mi WNW 8.1 mph - N/A   Clear
3:53 PM 91.9 °F 90.3 °F 55.9 °F 30% 29.87 in 10.0 mi WNW 4.6 mph - N/A   Clear
4:53 PM 91.9 °F 90.0 °F 55.0 °F 29% 29.85 in 10.0 mi Calm Calm - N/A   Clear
5:53 PM 93.9 °F - 51.1 °F 23% 29.83 in 10.0 mi NE 5.8 mph - N/A   Clear
6:53 PM 91.0 °F 89.7 °F 57.0 °F 32% 29.84 in 10.0 mi ENE 10.4 mph - N/A   Clear
7:53 PM 84.0 °F 83.8 °F 59.0 °F 43% 29.88 in 10.0 mi NE 11.5 mph - N/A   Clear
8:53 PM 80.1 °F 80.9 °F 60.1 °F 50% 29.91 in 10.0 mi WSW 15.0 mph 19.6 mph N/A   Clear
9:53 PM 77.0 °F - 60.1 °F 56% 29.91 in 10.0 mi SW 3.5 mph - N/A   Clear
10:53 PM 72.0 °F - 57.9 °F 61% 29.90 in 10.0 mi Calm Calm - N/A   Clear
11:53 PM 72.0 °F - 52.0 °F 49% 29.91 in 10.0 mi Calm Calm - N/A   Clear